Location: Lewisville
(33.0462°N, 96.9942°W)
Time: 19:15:05
(UTC-06:00)

Envisat - Visible Passes

Search period start: 16 January 2021 00:00
Search period end: 26 January 2021 00:00
Orbit: 764 x 766 km, 98.1° (Epoch: 16 January)

Date Brightness Start Highest point End Pass type
(mag) Time Alt. Az. Time Alt. Az. Time Alt. Az.
16 Jan 3.6 05:54:51 10° NNE 05:59:51 58° E 06:04:50 10° S visible
16 Jan 6.1 18:46:12 10° SW 18:49:05 15° W 18:51:59 10° WNW visible
17 Jan 5.3 05:18:51 10° NE 05:22:55 24° E 05:26:56 10° SSE visible
17 Jan 3.7 06:57:26 10° N 07:01:53 31° WNW 07:06:19 10° SW visible
17 Jan 4.8 18:07:25 10° SSW 18:12:03 37° W 18:16:44 10° NNW visible
18 Jan 2.9 06:20:10 10° N 06:25:15 76° WNW 06:30:18 10° SSW visible
19 Jan 4.2 05:43:35 10° NNE 05:48:26 44° E 05:53:15 10° S visible
19 Jan 5.9 18:33:56 10° SW 18:37:36 20° W 18:41:16 10° NW visible
20 Jan 5.7 05:07:59 10° NE 05:11:26 18° E 05:14:52 10° SE visible
20 Jan 3.4 06:45:49 10° N 06:50:32 40° WNW 06:55:16 10° SW visible
21 Jan 3.0 06:08:45 10° NNE 06:13:51 83° ESE 06:18:55 10° S visible
22 Jan 4.7 05:32:23 10° NNE 05:36:59 34° E 05:41:32 10° SSE visible
22 Jan 5.6 18:21:57 10° SSW 18:26:07 26° W 18:30:20 10° NW visible
23 Jan 6.0 04:57:22 10° ENE 04:59:56 14° E 05:02:28 10° ESE visible
23 Jan 3.1 06:34:16 10° N 06:39:11 53° WNW 06:44:06 10° SSW visible
24 Jan 3.4 05:57:24 10° NNE 06:02:26 64° E 06:07:27 10° S visible
24 Jan 6.2 18:49:12 10° WSW 18:51:42 14° W 18:54:14 10° WNW visible
25 Jan 5.2 05:21:18 10° NE 05:25:31 26° E 05:29:43 10° SSE visible
25 Jan 3.8 07:00:07 10° NNW 07:04:26 29° WNW 07:08:45 10° SW visible
